Midland Airpark, TX
on Tuesday, February 13, 2018

Tuesday
Previous Day Next Day
Daily Summary
 ActualAverage (KMAF)Record (KMAF)
Temperature
Mean Temperature - -  
Max Temperature 66 °F 59 °F 83 °F (1962)
Min Temperature 36 °F 34 °F 14 °F (1963)
Degree Days
Heating Degree Days 14    
Growing Degree Days1 (Base - )  
Moisture
Dew Point 32 °F   
Average Humidity 52    
Maximum Humidity 73    
Minimum Humidity 30    
Precipitation
Precipitation 0.03 in - - ()
Wind
Wind Speed 8 mph   
Max Wind Speed 14 mph   
Max Gust Speed 20 mph   
Visibility 10 miles   
Events     
Averages and records for this station are not official NWS values.
Key: T is trace of precipitation, MM is missing value
Source: NWS Daily Summary
Seasonal Weather Averages





Time(CST)TemperatureDew PointHumidity Pressure Visibility Wind DirectionWind SpeedGust SpeedPrecipitationEvents Conditions
12:15 AM 38.8 °F 19.2 °F 45% 30.24 in 10.0 miles East 5.8 mph - N/A   Unknown
12:35 AM 39.9 °F 20.1 °F 45% 30.22 in 10.0 miles ESE 8.1 mph - N/A   Unknown
12:55 AM 39.9 °F 20.8 °F 47% 30.22 in 10.0 miles East 8.1 mph - N/A   Unknown
1:15 AM 39.4 °F 21.7 °F 49% 30.22 in 10.0 miles ESE 6.9 mph - N/A   Unknown
1:35 AM 39.4 °F 23.4 °F 53% 30.22 in 10.0 miles ESE 6.9 mph - N/A   Unknown
1:55 AM 39.2 °F 23.7 °F 54% 30.22 in 10.0 miles SE 6.9 mph - N/A   Unknown
2:15 AM 38.3 °F 23.4 °F 55% 30.22 in 10.0 miles ESE 5.8 mph - N/A   Unknown
2:35 AM 37.8 °F 23.5 °F 57% 30.22 in 10.0 miles ESE 5.8 mph - N/A   Unknown
2:55 AM 37.2 °F 23.5 °F 58% 30.23 in 10.0 miles ESE 3.5 mph - N/A   Unknown
3:15 AM 36.7 °F 23.5 °F 59% 30.23 in 10.0 miles SE 4.6 mph - N/A   Unknown
3:35 AM 36.5 °F 23.9 °F 60% 30.23 in 10.0 miles SE 3.5 mph - N/A   Unknown
3:55 AM 36.9 °F 24.8 °F 62% 30.24 in 10.0 miles SE 5.8 mph - N/A   Unknown
4:15 AM 36.9 °F 25.2 °F 63% 30.25 in 10.0 miles ESE 4.6 mph - N/A   Unknown
4:35 AM 36.7 °F 25.2 °F 63% 30.25 in 10.0 miles ESE 5.8 mph - N/A   Unknown
4:55 AM 36.5 °F 25.3 °F 64% 30.25 in 10.0 miles SE 8.1 mph - N/A   Unknown
5:15 AM 36.5 °F 25.7 °F 65% 30.25 in 10.0 miles SE 5.8 mph - N/A   Unknown
5:35 AM 36.5 °F 25.7 °F 65% 30.26 in 10.0 miles SE 6.9 mph - N/A   Unknown
5:55 AM 36.5 °F 25.7 °F 65% 30.25 in 10.0 miles SE 6.9 mph - N/A   Unknown
6:15 AM 37.0 °F 25.9 °F 64% 30.25 in 10.0 miles ESE 5.8 mph - N/A   Unknown
6:35 AM 38.5 °F 27.3 °F 64% 30.26 in 10.0 miles SE 5.8 mph - N/A   Unknown
6:55 AM 39.6 °F 29.3 °F 67% 30.26 in 10.0 miles SSE 11.5 mph - N/A   Unknown
7:15 AM 40.6 °F 32.2 °F 72% 30.26 in 10.0 miles SSE 13.8 mph 19.6 mph N/A   Unknown
7:35 AM 40.5 °F 32.0 °F 72% 30.27 in 10.0 miles SSE 11.5 mph - N/A   Unknown
7:55 AM 41.0 °F 31.8 °F 70% 30.28 in 10.0 miles SSE 9.2 mph - N/A   Unknown
8:15 AM 41.5 °F 33.6 °F 73% 30.29 in 10.0 miles SSE 10.4 mph - N/A   Unknown
8:35 AM 43.0 °F 33.8 °F 70% 30.29 in 10.0 miles SE 10.4 mph - N/A   Unknown
8:55 AM 43.5 °F 33.8 °F 69% 30.31 in 10.0 miles SSE 11.5 mph - N/A   Unknown
9:15 AM 44.6 °F 34.2 °F 67% 30.31 in 10.0 miles SE 10.4 mph - N/A   Unknown
9:35 AM 45.7 °F 35.2 °F 67% 30.32 in 10.0 miles SSE 13.8 mph 17.3 mph N/A   Unknown
9:55 AM 47.7 °F 36.5 °F 65% 30.32 in 10.0 miles SSE 12.7 mph - N/A   Unknown
10:15 AM 48.6 °F 36.9 °F 64% 30.32 in 10.0 miles SSE 11.5 mph - N/A   Unknown
10:35 AM 49.8 °F 36.5 °F 60% 30.33 in 10.0 miles SSE 11.5 mph - N/A   Unknown
10:55 AM 52.2 °F 37.4 °F 57% 30.33 in 10.0 miles SSE 11.5 mph 18.4 mph N/A   Unknown
11:15 AM 52.9 °F 36.7 °F 54% 30.33 in 10.0 miles South 10.4 mph - N/A   Unknown
11:35 AM 54.5 °F 36.5 °F 51% 30.33 in 10.0 miles South 8.1 mph - N/A   Unknown
11:55 AM 54.5 °F 36.5 °F 51% 30.31 in 10.0 miles SSE 11.5 mph 18.4 mph N/A   Unknown
12:15 PM 54.7 °F 36.1 °F 50% 30.31 in 10.0 miles SE 11.5 mph - N/A   Unknown
12:35 PM 55.9 °F 36.3 °F 48% 30.31 in 10.0 miles SSE 10.4 mph - N/A   Unknown
12:55 PM 57.2 °F 36.1 °F 45% 30.29 in 10.0 miles South 9.2 mph - N/A   Unknown
1:15 PM 59.2 °F 36.7 °F 43% 30.28 in 10.0 miles SSE 9.2 mph - N/A   Unknown
1:35 PM 60.8 °F 37.6 °F 42% 30.28 in 10.0 miles SSW 9.2 mph - N/A   Unknown
1:55 PM 62.4 °F 37.2 °F 39% 30.27 in 10.0 miles South 11.5 mph 16.1 mph N/A   Unknown
2:15 PM 63.7 °F 36.9 °F 37% 30.25 in 10.0 miles South 9.2 mph - N/A   Unknown
2:35 PM - - N/A% - - North - - N/A   Unknown
2:55 PM 65.3 °F 35.8 °F 34% 30.23 in 10.0 miles South 10.4 mph - 0.03 in   Unknown
3:15 PM 65.5 °F 35.2 °F 33% 30.23 in 10.0 miles South 8.1 mph - N/A   Unknown
3:35 PM 65.8 °F 34.7 °F 32% 30.22 in 10.0 miles South 6.9 mph - N/A   Unknown
3:55 PM 66.6 °F 34.7 °F 31% 30.22 in 10.0 miles South 8.1 mph - N/A   Unknown
4:15 PM 66.4 °F 34.5 °F 31% 30.22 in 10.0 miles South 9.2 mph - N/A   Unknown
4:35 PM 66.7 °F 34.5 °F 30% 30.22 in 10.0 miles South 9.2 mph - N/A   Unknown
4:55 PM 65.8 °F 34.0 °F 31% 30.22 in 10.0 miles South 8.1 mph - N/A   Unknown
5:15 PM 65.7 °F 34.0 °F 31% 30.23 in 10.0 miles South 9.2 mph - N/A   Unknown
5:35 PM 65.5 °F 34.2 °F 31% 30.24 in 10.0 miles SSW 6.9 mph - N/A   Unknown
5:55 PM 65.1 °F 34.2 °F 32% 30.23 in 10.0 miles South 3.5 mph - N/A   Unknown
6:15 PM 64.2 °F 34.2 °F 33% 30.23 in 10.0 miles South 4.6 mph - N/A   Unknown
6:35 PM 63.0 °F 34.2 °F 34% 30.23 in 10.0 miles South 6.9 mph - N/A   Unknown
6:55 PM 63.1 °F 34.3 °F 34% 30.24 in 10.0 miles South 8.1 mph - N/A   Unknown
7:15 PM 62.2 °F 35.2 °F 37% 30.24 in 10.0 miles South 6.9 mph - N/A   Unknown
7:35 PM 61.7 °F 36.0 °F 38% 30.25 in 10.0 miles South 6.9 mph - N/A   Unknown
7:55 PM 61.0 °F 36.5 °F 40% 30.26 in 10.0 miles South 8.1 mph - N/A   Unknown
8:15 PM 59.4 °F 36.9 °F 43% 30.26 in 10.0 miles South 8.1 mph - N/A   Unknown
8:35 PM 58.6 °F 37.4 °F 45% 30.26 in 10.0 miles South 9.2 mph - N/A   Unknown
8:55 PM 57.6 °F 37.6 °F 47% 30.26 in 10.0 miles South 6.9 mph - N/A   Unknown
9:15 PM 56.7 °F 37.9 °F 50% 30.26 in 10.0 miles South 6.9 mph - N/A   Unknown
9:35 PM 55.9 °F 37.9 °F 51% 30.26 in 10.0 miles SSE 5.8 mph - N/A   Unknown
9:55 PM 54.9 °F 37.9 °F 53% 30.27 in 10.0 miles South 5.8 mph - N/A   Unknown
10:15 PM 53.6 °F 37.8 °F 55% 30.26 in 10.0 miles SSE 4.6 mph - N/A   Unknown
10:35 PM 53.1 °F 37.4 °F 55% 30.27 in 10.0 miles SSE 3.5 mph - N/A   Unknown
10:55 PM 52.5 °F 37.8 °F 57% 30.26 in 10.0 miles South 4.6 mph - N/A   Unknown
11:15 PM 51.3 °F 37.9 °F 60% 30.26 in 10.0 miles SSE 5.8 mph - N/A   Unknown
11:35 PM 52.0 °F 38.3 °F 60% 30.26 in 10.0 miles South 5.8 mph - N/A   Unknown
11:55 PM 52.0 °F 38.7 °F 60% 30.26 in 10.0 miles SSE 5.8 mph - N/A   Unknown
 Powered By Weather Underground